When you browse on this site, cookies collect data to enhance your experience and personalize the content and advertising you see.
Visit our Privacy Policy to learn more. By continuing to use the site, you agree to this use of cookies and data.
EN

Hourly Weather Godzieby

Today, 26 September, Saturday

Time Temperature Precipitation Wind Pressure Humidity
00:00 +19°C° 0 mm 4 mps 736 mmHg 69%
01:00 +19°C° 0 mm 5 mps 735 mmHg 69%
02:00 +19°C° 0 mm 5 mps 735 mmHg 63%
03:00 +17°C° 0 mm 5 mps 735 mmHg 66%
04:00 +17°C° 0 mm 5 mps 735 mmHg 68%
05:00 +17°C° 0 mm 6 mps 735 mmHg 71%
06:00 +17°C° 0 mm 6 mps 734 mmHg 71%
07:00 +17°C° 0 mm 7 mps 734 mmHg 71%
08:00 +17°C° 0 mm 7 mps 734 mmHg 72%
09:00 +20°C° 0 mm 8 mps 734 mmHg 67%
10:00 +21°C° 0 mm 8 mps 735 mmHg 63%
11:00 +23°C° 0 mm 9 mps 735 mmHg 58%
12:00 +23°C° 0 mm 9 mps 735 mmHg 54%
13:00 +24°C° 0 mm 9 mps 735 mmHg 51%
14:00 +27°C° 0 mm 8 mps 734 mmHg 48%
15:00 +26°C° 0.3 mm 8 mps 734 mmHg 52%
16:00 +24°C° 0.3 mm 7 mps 734 mmHg 55%
17:00 +23°C° 0.3 mm 7 mps 734 mmHg 59%
18:00 +23°C° 0.1 mm 7 mps 735 mmHg 60%
19:00 +22°C° 0.1 mm 6 mps 735 mmHg 61%
20:00 +21°C° 0.1 mm 6 mps 735 mmHg 62%
21:00 +21°C° 0 mm 7 mps 735 mmHg 62%
22:00 +21°C° 0 mm 7 mps 735 mmHg 62%
23:00 +21°C° 0 mm 7 mps 735 mmHg 62%

Tomorrow, 27 September, Sunday

Time Temperature Precipitation Wind Pressure Humidity
00:00 +21°C° 0 mm 7 mps 735 mmHg 62%
01:00 +20°C° 0 mm 7 mps 735 mmHg 61%
02:00 +20°C° 0 mm 7 mps 735 mmHg 61%
03:00 +20°C° 0 mm 7 mps 735 mmHg 61%
04:00 +20°C° 0 mm 7 mps 734 mmHg 61%
05:00 +20°C° 0 mm 8 mps 734 mmHg 61%
06:00 +20°C° 0.1 mm 8 mps 734 mmHg 61%
07:00 +18°C° 0.1 mm 8 mps 734 mmHg 61%
08:00 +18°C° 0.1 mm 8 mps 734 mmHg 61%
09:00 +18°C° 0 mm 9 mps 735 mmHg 62%
10:00 +18°C° 0 mm 9 mps 735 mmHg 64%
11:00 +18°C° 0 mm 9 mps 735 mmHg 66%
12:00 +17°C° 0.5 mm 9 mps 735 mmHg 70%
13:00 +17°C° 0.5 mm 8 mps 736 mmHg 73%
14:00 +17°C° 0.5 mm 8 mps 736 mmHg 77%
15:00 +15°C° 1 mm 7 mps 737 mmHg 80%
16:00 +12°C° 1 mm 7 mps 738 mmHg 83%
17:00 +10°C° 1 mm 7 mps 738 mmHg 86%
18:00 +10°C° 0 mm 6 mps 739 mmHg 85%
19:00 +10°C° 0 mm 6 mps 740 mmHg 84%
20:00 +9°C° 0 mm 5 mps 740 mmHg 83%
21:00 +9°C° 0.1 mm 5 mps 741 mmHg 83%
22:00 +10°C° 0.1 mm 5 mps 742 mmHg 83%
23:00 +10°C° 0.1 mm 5 mps 743 mmHg 84%

Day after tomorrow, 28 September, Monday

Time Temperature Precipitation Wind Pressure Humidity
00:00 +10°C° 0 mm 4 mps 744 mmHg 84%
01:00 +10°C° 0 mm 4 mps 744 mmHg 84%
02:00 +10°C° 0 mm 3 mps 744 mmHg 84%
03:00 +9°C° 0 mm 3 mps 745 mmHg 86%
04:00 +8°C° 0 mm 3 mps 745 mmHg 88%
05:00 +8°C° 0 mm 3 mps 745 mmHg 91%
06:00 +7°C° 0 mm 4 mps 746 mmHg 87%
07:00 +8°C° 0 mm 4 mps 746 mmHg 83%
08:00 +8°C° 0 mm 4 mps 746 mmHg 79%
09:00 +11°C° 0 mm 4 mps 747 mmHg 72%
10:00 +13°C° 0 mm 5 mps 747 mmHg 64%
11:00 +15°C° 0 mm 5 mps 747 mmHg 57%
12:00 +17°C° 0 mm 4 mps 747 mmHg 53%
13:00 +18°C° 0 mm 4 mps 747 mmHg 48%
14:00 +19°C° 0 mm 4 mps 747 mmHg 44%
15:00 +18°C° 0 mm 3 mps 747 mmHg 47%
16:00 +18°C° 0 mm 3 mps 747 mmHg 50%
17:00 +18°C° 0 mm 3 mps 746 mmHg 53%
18:00 +16°C° 0 mm 3 mps 746 mmHg 57%
19:00 +14°C° 0 mm 3 mps 746 mmHg 62%
20:00 +12°C° 0 mm 3 mps 746 mmHg 67%
21:00 +12°C° 0 mm 3 mps 746 mmHg 70%
22:00 +12°C° 0 mm 3 mps 746 mmHg 73%
23:00 +12°C° 0 mm 3 mps 746 mmHg 77%

29 September, Tuesday

Time Temperature Precipitation Wind Pressure Humidity
00:00 +12°C° 0 mm 3 mps 746 mmHg 79%
01:00 +11°C° 0 mm 3 mps 746 mmHg 82%
02:00 +11°C° 0 mm 3 mps 746 mmHg 85%
03:00 +12°C° 0 mm 2 mps 745 mmHg 84%
04:00 +13°C° 0 mm 2 mps 745 mmHg 84%
05:00 +13°C° 0 mm 2 mps 745 mmHg 83%
06:00 +12°C° 0 mm 3 mps 745 mmHg 80%
07:00 +13°C° 0 mm 3 mps 745 mmHg 78%
08:00 +13°C° 0 mm 3 mps 745 mmHg 76%
09:00 +14°C° 0 mm 3 mps 745 mmHg 73%
10:00 +16°C° 0 mm 3 mps 746 mmHg 70%
11:00 +16°C° 0 mm 3 mps 746 mmHg 68%
12:00 +16°C° 0.1 mm 3 mps 746 mmHg 70%
13:00 +16°C° 0.1 mm 2 mps 746 mmHg 72%
14:00 +16°C° 0.1 mm 2 mps 746 mmHg 74%
15:00 +16°C° 0.1 mm 2 mps 745 mmHg 78%
16:00 +15°C° 0.1 mm 1 mps 745 mmHg 81%
17:00 +15°C° 0.1 mm 1 mps 745 mmHg 84%
18:00 +15°C° 0 mm 1 mps 745 mmHg 84%
19:00 +15°C° 0 mm 1 mps 745 mmHg 84%
20:00 +15°C° 0 mm 2 mps 746 mmHg 84%
21:00 +15°C° 0 mm 2 mps 746 mmHg 84%
22:00 +15°C° 0 mm 1 mps 746 mmHg 83%
23:00 +14°C° 0 mm 1 mps 746 mmHg 83%

30 September, Wednesday

Time Temperature Precipitation Wind Pressure Humidity
00:00 +14°C° 0 mm 2 mps 745 mmHg 84%
01:00 +14°C° 0 mm 2 mps 745 mmHg 85%
02:00 +13°C° 0 mm 2 mps 745 mmHg 86%
03:00 +13°C° 0 mm 2 mps 745 mmHg 87%
04:00 +12°C° 0 mm 3 mps 745 mmHg 87%
05:00 +12°C° 0 mm 3 mps 744 mmHg 88%
06:00 +12°C° 0 mm 3 mps 744 mmHg 88%
07:00 +12°C° 0 mm 4 mps 744 mmHg 89%
08:00 +12°C° 0 mm 4 mps 744 mmHg 89%
09:00 +14°C° 0 mm 4 mps 744 mmHg 82%
10:00 +15°C° 0 mm 4 mps 744 mmHg 75%
11:00 +18°C° 0 mm 4 mps 743 mmHg 68%
12:00 +17°C° 0 mm 5 mps 743 mmHg 65%
13:00 +19°C° 0 mm 5 mps 743 mmHg 62%
14:00 +20°C° 0 mm 5 mps 742 mmHg 59%
15:00 +19°C° 0 mm 5 mps 742 mmHg 60%
16:00 +19°C° 0 mm 5 mps 742 mmHg 62%
17:00 +18°C° 0 mm 4 mps 742 mmHg 63%
18:00 +17°C° 0 mm 4 mps 742 mmHg 66%
19:00 +15°C° 0 mm 4 mps 742 mmHg 69%
20:00 +14°C° 0 mm 5 mps 742 mmHg 72%
21:00 +14°C° 0.2 mm 4 mps 742 mmHg 74%
22:00 +14°C° 0.2 mm 4 mps 742 mmHg 75%
23:00 +13°C° 0.2 mm 3 mps 742 mmHg 77%

1 October, Thursday

Time Temperature Precipitation Wind Pressure Humidity
00:00 +13°C° 0 mm 3 mps 742 mmHg 76%
01:00 +13°C° 0 mm 3 mps 742 mmHg 76%
02:00 +13°C° 0 mm 3 mps 741 mmHg 75%
03:00 +12°C° 0 mm 3 mps 741 mmHg 76%
04:00 +12°C° 0 mm 3 mps 741 mmHg 76%
05:00 +12°C° 0 mm 4 mps 741 mmHg 77%
06:00 +12°C° 0.3 mm 4 mps 741 mmHg 79%
07:00 +12°C° 0.3 mm 3 mps 741 mmHg 82%
08:00 +12°C° 0.3 mm 3 mps 741 mmHg 84%
09:00 +12°C° 0.1 mm 4 mps 741 mmHg 86%
10:00 +12°C° 0.1 mm 4 mps 741 mmHg 87%
11:00 +12°C° 0.1 mm 4 mps 741 mmHg 89%
12:00 +13°C° 0.1 mm 4 mps 740 mmHg 86%
13:00 +13°C° 0.1 mm 4 mps 740 mmHg 84%
14:00 +13°C° 0.1 mm 4 mps 740 mmHg 82%
15:00 +13°C° 1.1 mm 5 mps 740 mmHg 85%
16:00 +12°C° 1.1 mm 5 mps 740 mmHg 89%
17:00 +10°C° 1.1 mm 5 mps 740 mmHg 92%
18:00 +10°C° 1.1 mm 5 mps 740 mmHg 92%
19:00 +11°C° 1.1 mm 4 mps 740 mmHg 93%
20:00 +11°C° 1.1 mm 4 mps 740 mmHg 93%
21:00 +11°C° 0.2 mm 4 mps 739 mmHg 93%
22:00 +11°C° 0.2 mm 4 mps 739 mmHg 93%
23:00 +11°C° 0.2 mm 4 mps 739 mmHg 93%
Show more